Tracking 29892 objects as of 21-Nov-2024
HD Live streaming from Space Station
objects crossing your sky now

ONEWEB-0107

Track ONEWEB-0107 now!
10-day predictions
ONEWEB-0107 is classified as:


NORAD ID: 48048
Int'l Code: 2021-025G
Perigee: 1,215.9 km
Apogee: 1,217.9 km
Inclination: 87.9 °
Period: 109.6 minutes
Semi major axis: 7587 km
RCS: Unknown
Launch date: March 25, 2021
Source: United States (US)
Launch site: VOSTOCHNY COSMODROME (VOSTO)
Your satellite tracking list
Your tracking list is empty




NASA's NSSDC Master Catalog

Two Line Element Set (TLE):
1 48048U 21025G   24325.25815228 -.00000174  00000-0 -51059-3 0  9990
2 48048  87.8919  74.3669 0001274 110.5976 249.5289 13.13473355178185
Source of the keplerian elements: AFSPC